User: anonymous   Login
Location: Koussan�
(15.2012°N, 12.5548°W)
Time: 14:49:52
(UTC+00:00)
Language:

Cosmos 1602 Rocket - Orbit

View from above orbital plane
View from above orbital plane
View from above satellite
View from above satellite

Ground track
Ground track

The orbit data is extracted from the following two-line orbital elements,

1 15332U 84105B   21020.16905682  .00000060  00000-0  44008-5 0  9991
2 15332  82.5333  40.6484 0021200   4.5930  63.0849 14.83445371961233
Epoch (UTC): 20 January 2021 04:03:26
Eccentricity: 0.0021200
inclination: 82.5333°
perigee height: 603 km
apogee height: 633 km
right ascension of ascending node: 40.6484°
argument of perigee: 4.5930°
revolutions per day: 14.83445371
mean anomaly at epoch: 63.0849°
orbit number at epoch: 96123

The dashed part of the orbit path shows where the satellite is in the earth's shadow,  

DLR